DW9665 Sarajevo BA current weather conditions

sailwx.info

Wind from 180 at 0 knots gusting 12

Air temperature 30.0° C
Dewpoint -1.4° C

Last reported at 2015-Sep-04 11:47 UTC.
Time now 2015-Sep-04 12:26 UTC

Location: N 43°50' E 018°21'.
View on Google Maps.

See reports from other nearby stations

  
Tides and Currents Weather Stations Pressure Air Temp Water Temp Dewpoint Dewpoint Depression Visibility Wind Speed Wind Dir Waves Ship Positions
date/time (UTC)wind fromknots sea level pressurealtimeterstation pressurevisibilityair tempwater tempwave heightnotes
2015-Sep-04 11:47 180 0 gusting 12 30.0
2015-Sep-04 11:32 180 4 gusting 11 29.4
2015-Sep-04 11:17 270 8 gusting 13 29.4
2015-Sep-04 11:02 270 2 gusting 11 29.4
2015-Sep-04 10:47 338 4 gusting 3 30.6
2015-Sep-04 10:32 158 30.0
2015-Sep-04 10:17 090 0 gusting 3 28.9
2015-Sep-04 10:02 270 1 gusting 4 27.8
2015-Sep-04 09:47 270 1 gusting 5 27.2
2015-Sep-04 09:32 270 1 gusting 2 26.7
2015-Sep-04 09:17 338 0 gusting 5 26.1
2015-Sep-04 09:02 270 1 gusting 3 26.1
2015-Sep-04 08:47 180 25.6
2015-Sep-04 08:32 270 2 gusting 3 24.4
2015-Sep-04 08:17 24.4
2015-Sep-04 08:02 135 23.9
2015-Sep-04 07:47 112 0 gusting 2 22.2
2015-Sep-04 07:32 270 1 gusting 3 21.1
2015-Sep-04 07:17 270 1 gusting 2 20.6
2015-Sep-04 07:02 292 0 gusting 2 20.6
2015-Sep-04 06:47 270 0 gusting 2 20.6
2015-Sep-04 06:32 112 0 gusting 1 19.4
2015-Sep-04 06:17 270 0 gusting 2 18.9
2015-Sep-04 06:02 18.3
2015-Sep-04 05:47 270 0 gusting 1 17.8
2015-Sep-04 05:32 270 17.8
2015-Sep-04 05:17 135 16.7
2015-Sep-04 05:02 135 0 gusting 2 16.1
2015-Sep-04 04:47 158 16.1
2015-Sep-04 04:32 158 15.6
2015-Sep-04 04:17 158 15.6
2015-Sep-04 04:02 158 1 gusting 2 15.6
2015-Sep-04 03:47 270 16.1
2015-Sep-04 03:32 16.1
2015-Sep-04 03:17 270 0 gusting 1 16.1
2015-Sep-04 03:02 292 16.7
2015-Sep-04 02:47 135 16.7
2015-Sep-04 02:32 135 17.2
2015-Sep-04 02:17 135 17.2
2015-Sep-04 02:02 270 1 gusting 1 17.2
2015-Sep-04 01:47 158 17.2
2015-Sep-04 01:32 158 17.2
2015-Sep-04 01:17 135 0 gusting 0 17.8
2015-Sep-04 01:02 158 17.8
2015-Sep-04 00:47 292 18.3
2015-Sep-04 00:32 180 18.3
2015-Sep-04 00:17 180 18.9
2015-Sep-04 00:02 180 19.4
2015-Sep-03 23:47 180 19.4
2015-Sep-03 23:32 135 2 gusting 2 19.4
2015-Sep-03 23:17 158 19.4
2015-Sep-03 23:02 180 20.0
2015-Sep-03 22:47 270 0 gusting 1 20.0
2015-Sep-03 22:32 270 0 gusting 1 20.6
2015-Sep-03 22:17 180 20.6
2015-Sep-03 22:02 158 0 gusting 1 21.1
2015-Sep-03 21:47 270 21.7
2015-Sep-03 21:32 112 21.7
2015-Sep-03 21:17 045 0 gusting 1 21.7
2015-Sep-03 21:02 068 0 gusting 1 22.2
2015-Sep-03 20:47 135 22.2
2015-Sep-03 20:32 180 1 gusting 2 22.8
2015-Sep-03 20:17 158 23.3
2015-Sep-03 19:47 338 24.4
2015-Sep-03 19:32 090 24.4
2015-Sep-03 19:17 158 2 gusting 3 25.0
2015-Sep-03 19:02 158 1 gusting 2 25.6
2015-Sep-03 18:47 338 25.6
2015-Sep-03 18:32 338 0 gusting 1 26.1
2015-Sep-03 18:17 135 26.1
2015-Sep-03 18:02 180 26.7
2015-Sep-03 17:47 158 1 gusting 4 27.2
2015-Sep-03 17:32 158 27.8
2015-Sep-03 17:02 135 3 gusting 4 28.9
2015-Sep-03 16:47 270 29.4
2015-Sep-03 16:32 135 30.0
2015-Sep-03 16:17 158 29.4
2015-Sep-03 16:02 270 3 gusting 8 30.0
2015-Sep-03 15:47 270 5 gusting 9 30.6
2015-Sep-03 15:32 180 4 gusting 13 30.6
2015-Sep-03 15:17 270 7 gusting 12 30.6
2015-Sep-03 15:02 180 5 gusting 13 30.6
2015-Sep-03 14:47 270 8 gusting 11 30.6
2015-Sep-03 14:32 180 2 gusting 14 30.6
2015-Sep-03 14:17 270 6 gusting 14 30.6
2015-Sep-03 14:02 180 8 gusting 16 30.6
2015-Sep-03 13:47 270 6 gusting 13 30.6
2015-Sep-03 13:32 338 5 gusting 11 30.6
2015-Sep-03 13:17 270 7 gusting 11 30.6
2015-Sep-03 13:02 270 5 gusting 8 30.6
2015-Sep-03 12:47 180 0 gusting 6 31.1
2015-Sep-03 12:32 158 0 gusting 7 30.6
2015-Sep-03 12:17 292 2 gusting 7 30.6
2015-Sep-03 12:02 270 2 gusting 7 30.6
2015-Sep-03 11:47 270 2 gusting 6 30.6
2015-Sep-03 11:32 315 3 gusting 8 30.6
2015-Sep-03 11:17 292 0 gusting 6 30.6
2015-Sep-03 11:02 180 30.0
2015-Sep-03 10:47 180 4 gusting 5 29.4
2015-Sep-03 10:32 270 2 gusting 4 28.9
2015-Sep-03 10:17 270 28.3
2015-Sep-03 10:02 180 0 gusting 3 27.8
2015-Sep-03 09:47 292 26.7
2015-Sep-03 09:32 26.1
2015-Sep-03 09:17 292 25.0
2015-Sep-03 09:02 270 24.4
2015-Sep-03 08:47 270 1 gusting 2 25.0
2015-Sep-03 08:32 292 24.4
2015-Sep-03 08:17 315 1 gusting 3 23.9
2015-Sep-03 08:02 112 0 gusting 2 23.3
2015-Sep-03 07:47 292 1 gusting 2 21.7
2015-Sep-03 07:32 270 0 gusting 2 21.7
2015-Sep-03 07:17 135 21.1
2015-Sep-03 07:02 270 20.6
2015-Sep-03 06:47 112 1 gusting 3 20.6
2015-Sep-03 06:32 135 2 gusting 3 20.0
2015-Sep-03 06:17 158 1 gusting 2 19.4
2015-Sep-03 06:02 158 0 gusting 3 18.3
2015-Sep-03 05:47 292 0 gusting 2 18.3
2015-Sep-03 05:32 112 1 gusting 1 17.8
2015-Sep-03 05:17 180 0 gusting 1 16.7
2015-Sep-03 05:02 292 16.7
2015-Sep-03 04:47 180 16.1
2015-Sep-03 04:32 158 2 gusting 2 16.1
2015-Sep-03 04:17 112 0 gusting 2 16.1
2015-Sep-03 04:02 270 1 gusting 1 16.1
2015-Sep-03 03:47 112 16.1
2015-Sep-03 03:32 16.7
2015-Sep-03 03:17 270 0 gusting 1 16.7
2015-Sep-03 03:02 180 0 gusting 1 16.7
2015-Sep-03 02:47 180 17.2
2015-Sep-03 02:32 180 0 gusting 1 17.8
2015-Sep-03 02:17 270 17.8
2015-Sep-03 02:02 158 17.8
2015-Sep-03 01:47 180 2 gusting 3 18.3
2015-Sep-03 01:32 135 1 gusting 3 17.8
2015-Sep-03 01:17 135 1 gusting 2 18.3
2015-Sep-03 01:02 270 2 gusting 3 18.3
2015-Sep-03 00:47 270 18.3
2015-Sep-03 00:32 180 18.9
2015-Sep-03 00:17 270 0 18.9
2015-Sep-03 00:02 180 19.4
2015-Sep-02 23:47 158 19.4
2015-Sep-02 23:32 180 20.0
2015-Sep-02 23:17 270 20.0
2015-Sep-02 23:02 158 20.6
2015-Sep-02 22:47 180 20.6
2015-Sep-02 22:32 292 21.1
2015-Sep-02 22:17 292 21.1
2015-Sep-02 22:02 135 21.7
2015-Sep-02 21:47 158 0 gusting 1 21.7
2015-Sep-02 21:32 180 22.2
2015-Sep-02 21:17 180 22.2
2015-Sep-02 21:02 270 1 gusting 3 22.8
2015-Sep-02 20:47 292 23.3
2015-Sep-02 20:32 270 23.9
2015-Sep-02 20:17 022 23.9
2015-Sep-02 20:02 158 24.4
2015-Sep-02 19:47 180 24.4
2015-Sep-02 19:32 292 25.0
2015-Sep-02 19:17 270 3 gusting 6 25.6
2015-Sep-02 19:02 270 3 gusting 5 26.1
2015-Sep-02 18:47 270 0 gusting 5 26.7
2015-Sep-02 18:32 270 3 gusting 4 26.7
2015-Sep-02 18:17 270 26.7
2015-Sep-02 18:02 27.2
2015-Sep-02 17:47 270 0 gusting 3 27.8
2015-Sep-02 17:32 022 28.3
2015-Sep-02 17:17 270 2 gusting 4 28.9
2015-Sep-02 17:02 270 1 gusting 4 30.0
2015-Sep-02 16:47 270 2 gusting 5 31.1
2015-Sep-02 16:32 270 2 gusting 6 31.7
2015-Sep-02 16:17 270 1 gusting 5 31.7
2015-Sep-02 16:02 270 3 gusting 5 32.2
2015-Sep-02 15:47 270 3 gusting 6 32.2
2015-Sep-02 15:32 292 1 gusting 4 32.2
2015-Sep-02 15:17 180 32.2
2015-Sep-02 15:02 270 3 gusting 9 31.7
2015-Sep-02 14:47 270 2 gusting 8 31.7
2015-Sep-02 14:32 270 4 gusting 8 31.7
2015-Sep-02 14:17 112 2 gusting 8 31.7
2015-Sep-02 14:02 180 31.7
2015-Sep-02 13:47 270 2 gusting 10 31.1
2015-Sep-02 13:32 270 6 gusting 9 31.1
2015-Sep-02 13:17 270 6 gusting 8 31.7
2015-Sep-02 13:02 270 6 gusting 7 31.1
2015-Sep-02 12:47 270 2 gusting 9 31.1
2015-Sep-02 12:32 338 2 gusting 6 31.1
2015-Sep-02 12:17 270 5 gusting 11 30.6
2015-Sep-02 12:02 315 1 gusting 7 31.1